Погода в Жанакоргане

Казахстан     43°53′57″N   67°14′08″E
темп.,
°C
ветер,
м/с
пор.,
м/с
влажн.,
%
обл.,
%
осадки,
мм/ч
давл.,
гПа
погр.,
м
28 сентября, вт
вт2823:00+16ссв22460 0.0 101611
02:00+16вюв33460 0.0 101615
05:00+15ююв44470 0.0 101533
08:00+16ююв46410 0.0 1015197
11:00+22юз56290 0.0 10141887
14:00+24зюз78240 0.0 10122259
17:00+24з78230 0.0 10122322
20:00+19з44350 0.0 101334
29 сентября, ср
ср2923:00+16ссз475194 0.0 1014105
02:00+14сз334277 0.0 101443
05:00+12сз33535 0.0 101525
08:00+13сз23560 0.0 1017177
11:00+18зсз34390 0.0 10171141
14:00+21з68294 0.0 10161835
17:00+21з78255 0.0 10161952
20:00+16сз33370 0.0 101828
30 сентября, чт
чт3023:00+15зсз45435 0.0 101858
02:00+12сз33525 0.0 101932
05:00+10сз23590 0.0 102020
08:00+12сз23540 0.0 1021189
11:00+16сз34360 0.0 1021972
14:00+19сз56284 0.0 10201475
17:00+18сз77289 0.0 10201441
20:00+13ссз58375 0.0 1021192
1 октября, пт
пт123:00+11ссв46423 0.0 102295
02:00+9с46465 0.0 102295
05:00+8с46535 0.0 1022125
08:00+10ссв6748100 0.0 1022352
11:00+15с6631100 0.0 1022916
14:00+17с762553 0.0 10211251
17:00+16ссв882853 0.0 10211219
20:00+13с71133100 0.0 1022574
2 октября, сб
сб223:00+12ссв81232100 0.0 1022615
02:00+11ссв812355 0.0 1023369
05:00+10св712362 0.0 1023336
08:00+11св811330 0.0 1024546
11:00+15св88250 0.0 10251099
14:00+17ссв88200 0.0 10241433
17:00+15ссв88210 0.0 10251423
20:00+11ссв510290 0.0 1026158